Weather History for Rome, OR

Change the Weather History Date:

Wednesday, February 6, 2013

  Actual Average Record
Temperature  
Mean Temperature 36 °F 32 °F  
Max Temperature 47 °F 42 °F 64 °F (1963)
Min Temperature 24 °F 21 °F -11 °F (1989)
Degree Days  
Heating Degree Days 29 33  
Month to date heating degree days 168 203  
Since 1 July heating degree days 3960 4052  
Cooling Degree Days 0 0  
Month to date cooling degree days 0 0  
Year to date cooling degree days 0 0  
Moisture  
Dew Point 24 °F    
Average Humidity 63    
Maximum Humidity 92    
Minimum Humidity 34    
Precipitation  
Precipitation 0.00 in 0.03 in 0.39 in (1941)
Month to date precipitation 0.01 0.17  
Year to date precipitation 0.56 0.82  
Sea Level Pressure  
Sea Level Pressure 30.08 in    
Wind  
Wind Speed 6 mph (South)    
Max Wind Speed 16 mph    
Max Gust Speed 20 mph    
T = Trace of Precipitation, MM = Missing Value Source: NWS Daily Summary

Daily Weather History Graph

Daily Weather History Graph

Search for Another Location

Airport:

Trip Planner

Search our weather history database for the weather conditions in past years. The results will help you decide how hot, cold, wet, or windy it might be!

Date:

Astronomy

Feb. 06, 2013 Rise Set
Actual Time 6:59 AM PST 5:12 PM PST
Civil Twilight 6:30 AM PST 5:41 PM PST
Nautical Twilight 5:56 AM PST 6:15 PM PST
Astronomical Twilight 5:23 AM PST 6:47 PM PST
Moon 3:50 AM PST (2/6) 1:33 PM PST (2/6)
Length of Visible Light 11h 11m
Length of Day
10h 12m
Waning Crescent, 16% of the Moon is Illuminated
Feb 6
Waning Crescent
Feb 9
New
Feb 17
First Quarter
Feb 25
Full
Mar 4
Last Quarter

Hourly Weather History & Observations

Time (PST) Temp. Windchill Dew Point Humidity Pressure Visibility Wind Dir Wind Speed Gust Speed Precip Events Conditions
12:52 AM 30.9 °F 26.2 °F 28.0 °F 89% 30.06 in - SSE 4.6 mph - N/A   Unknown
1:52 AM 30.9 °F 24.3 °F 27.0 °F 85% 30.06 in - SSW 6.9 mph - N/A   Unknown
2:52 AM 32.0 °F 26.4 °F 28.0 °F 85% 30.06 in - SSW 5.8 mph - N/A   Unknown
3:52 AM 32.0 °F 26.4 °F 27.0 °F 82% 30.08 in - SSW 5.8 mph - N/A   Unknown
4:52 AM 28.0 °F 20.0 °F 24.1 °F 85% 30.10 in - South 8.1 mph - N/A   Unknown
5:52 AM 28.9 °F 25.2 °F 23.0 °F 78% 30.12 in - North 3.5 mph - N/A   Unknown
6:52 AM 25.0 °F 19.3 °F 21.0 °F 85% 30.16 in - South 4.6 mph - N/A   Unknown
9:52 AM 39.0 °F 35.7 °F 24.1 °F 55% 30.15 in - SW 4.6 mph - N/A   Unknown
10:52 AM 41.0 °F 36.4 °F 23.0 °F 49% 30.16 in - SW 6.9 mph - N/A   Unknown
11:52 AM 43.0 °F 41.3 °F 21.0 °F 42% 30.12 in - SSE 3.5 mph - N/A   Unknown
12:52 PM 44.1 °F 39.5 °F 19.9 °F 38% 30.12 in - South 8.1 mph - N/A   Unknown
1:52 PM 46.0 °F 41.0 °F 19.9 °F 35% 30.09 in - SSE 10.4 mph - N/A   Unknown
2:52 PM 46.0 °F 43.9 °F 21.0 °F 37% 30.08 in - Variable 4.6 mph - N/A   Unknown
3:52 PM 46.0 °F 43.1 °F 19.9 °F 35% 30.07 in - South 5.8 mph - N/A   Unknown
4:52 PM 43.0 °F 40.3 °F 21.0 °F 42% 30.09 in - SSE 4.6 mph - N/A   Unknown
5:52 PM 37.0 °F 29.8 °F 26.1 °F 65% 30.09 in - SE 10.4 mph - N/A   Unknown
6:52 PM 33.1 °F 26.9 °F 25.0 °F 72% 30.10 in - SE 6.9 mph - N/A   Unknown
7:52 PM 32.0 °F 24.2 °F 26.1 °F 79% 30.07 in - SE 9.2 mph - N/A   Unknown
8:52 PM 37.0 °F 28.9 °F 26.1 °F 65% 30.04 in - SE 12.7 mph - N/A   Unknown
9:52 PM 37.9 °F 30.0 °F 26.1 °F 62% 30.00 in - SSE 12.7 mph - N/A   Unknown
10:52 PM 35.1 °F 32.2 °F 25.0 °F 67% 30.01 in - South 3.5 mph - N/A   Unknown
11:52 PM 33.1 °F 30.0 °F 25.0 °F 72% 30.00 in - Variable 3.5 mph - N/A   Unknown